Location: Albany
(35.0170°S, 117.8920°E)
Time: 09:00:39
(UTC+08:00)

S-56A Canister/Altair - Pass Details

Date: 25 January 2021
Orbit: 632 x 2501 km, 38.9° (Epoch: 25 February)

Event Time Altitude Azimuth Distance (km) Brightness Sun altitude
Rises 19:28:11 0° 248° (WSW) 6,174 15.6 -2.3°
Reaches altitude 10° 19:32:28 10° 251° (WSW) 5,082 13.7 -3.0°
Maximum altitude 19:46:21 59° 324° (NW) 2,259 10.0 -5.6°
Drops below altitude 10° 19:56:17 10° 41° (NE) 3,722 10.4 -7.4°
Enters shadow 19:57:14 - 42° (NE) 3,980 10.6 -7.5°
Sets 19:58:57 0° 45° (NE) 4,473 - -7.8°
